Meteo orario Abkhazia

Oggi, 4 Marzo, Giovedi

Tempo Temperatura Precipitazioni Vento Pressione Umidità
00:00 -5°C° 0 mm 2 m/s 688 mm Hg 85%
01:00 -6°C° 0 mm 2 m/s 688 mm Hg 84%
02:00 -6°C° 0 mm 2 m/s 689 mm Hg 83%
03:00 -6°C° 0 mm 2 m/s 689 mm Hg 74%
04:00 -7°C° 0 mm 2 m/s 689 mm Hg 74%
05:00 -7°C° 0 mm 2 m/s 689 mm Hg 74%
06:00 -7°C° 0 mm 2 m/s 689 mm Hg 75%
07:00 -5°C° 0 mm 2 m/s 690 mm Hg 73%
08:00 -4°C° 0 mm 2 m/s 690 mm Hg 72%
09:00 -2°C° 0 mm 2 m/s 690 mm Hg 71%
10:00 -1°C° 0 mm 2 m/s 690 mm Hg 71%
11:00 -1°C° 0 mm 2 m/s 689 mm Hg 71%
12:00 +1°C° 0 mm 2 m/s 689 mm Hg 71%
13:00 +2°C° 0 mm 2 m/s 689 mm Hg 73%
14:00 +2°C° 0 mm 2 m/s 689 mm Hg 74%
15:00 +3°C° 0 mm 1 m/s 688 mm Hg 76%
16:00 +2°C° 0 mm 1 m/s 688 mm Hg 80%
17:00 0°C° 0 mm 1 m/s 688 mm Hg 84%
18:00 -1°C° 0 mm 1 m/s 687 mm Hg 87%
19:00 -1°C° 0 mm 1 m/s 687 mm Hg 81%
20:00 -4°C° 0 mm 2 m/s 687 mm Hg 75%
21:00 -4°C° 0 mm 2 m/s 687 mm Hg 68%
22:00 -5°C° 0 mm 2 m/s 687 mm Hg 65%
23:00 -5°C° 0 mm 2 m/s 686 mm Hg 61%

Domani, 5 Marzo, Venerdi

Tempo Temperatura Precipitazioni Vento Pressione Umidità
00:00 -6°C° 0 mm 3 m/s 686 mm Hg 57%
01:00 -6°C° 0 mm 3 m/s 686 mm Hg 54%
02:00 -6°C° 0 mm 3 m/s 686 mm Hg 51%
03:00 -5°C° 0 mm 2 m/s 686 mm Hg 47%
04:00 -5°C° 0 mm 2 m/s 685 mm Hg 49%
05:00 -5°C° 0 mm 2 m/s 685 mm Hg 50%
06:00 -5°C° 0 mm 2 m/s 685 mm Hg 51%
07:00 -3°C° 0 mm 2 m/s 685 mm Hg 53%
08:00 +1°C° 0 mm 1 m/s 685 mm Hg 54%
09:00 +3°C° 0 mm 1 m/s 686 mm Hg 56%
10:00 +4°C° 0 mm 1 m/s 686 mm Hg 59%
11:00 +5°C° 0 mm 1 m/s 686 mm Hg 63%
12:00 +5°C° 0 mm 1 m/s 686 mm Hg 67%
13:00 +6°C° 0 mm 1 m/s 686 mm Hg 68%
14:00 +6°C° 0 mm 1 m/s 686 mm Hg 69%
15:00 +6°C° 0 mm 1 m/s 686 mm Hg 70%
16:00 +5°C° 0 mm 1 m/s 686 mm Hg 72%
17:00 +3°C° 0 mm 1 m/s 686 mm Hg 75%
18:00 +2°C° 0 mm 1 m/s 685 mm Hg 77%
19:00 +1°C° 0 mm 2 m/s 686 mm Hg 70%
20:00 -1°C° 0 mm 2 m/s 686 mm Hg 62%
21:00 -1°C° 0 mm 2 m/s 686 mm Hg 55%
22:00 -1°C° 0 mm 3 m/s 686 mm Hg 52%
23:00 -1°C° 0 mm 3 m/s 686 mm Hg 49%

Dopodomani, 6 Marzo, Sabato

Tempo Temperatura Precipitazioni Vento Pressione Umidità
00:00 -1°C° 0 mm 3 m/s 686 mm Hg 47%
01:00 -1°C° 0 mm 3 m/s 686 mm Hg 46%
02:00 -1°C° 0 mm 3 m/s 685 mm Hg 46%
03:00 -1°C° 0 mm 3 m/s 685 mm Hg 46%
04:00 -1°C° 0 mm 3 m/s 685 mm Hg 46%
05:00 -1°C° 0 mm 3 m/s 685 mm Hg 46%
06:00 -1°C° 0 mm 3 m/s 685 mm Hg 46%
07:00 +2°C° 0 mm 2 m/s 685 mm Hg 49%
08:00 +3°C° 0 mm 2 m/s 685 mm Hg 53%
09:00 +5°C° 0 mm 2 m/s 686 mm Hg 56%
10:00 +6°C° 0 mm 2 m/s 686 mm Hg 55%
11:00 +7°C° 0 mm 2 m/s 685 mm Hg 53%
12:00 +8°C° 0 mm 2 m/s 685 mm Hg 52%
13:00 +8°C° 0 mm 2 m/s 685 mm Hg 53%
14:00 +8°C° 0 mm 2 m/s 685 mm Hg 54%
15:00 +8°C° 0 mm 2 m/s 684 mm Hg 56%
16:00 +7°C° 0 mm 2 m/s 684 mm Hg 57%
17:00 +6°C° 0 mm 2 m/s 684 mm Hg 59%
18:00 +4°C° 0 mm 2 m/s 684 mm Hg 61%
19:00 +4°C° 0.1 mm 2 m/s 684 mm Hg 63%
20:00 +4°C° 0.1 mm 2 m/s 684 mm Hg 64%
21:00 +3°C° 0.1 mm 2 m/s 685 mm Hg 66%
22:00 +3°C° 0.7 mm 2 m/s 685 mm Hg 72%
23:00 +2°C° 0.7 mm 2 m/s 685 mm Hg 78%

7 Marzo, Domenica

Tempo Temperatura Precipitazioni Vento Pressione Umidità
00:00 +2°C° 0.7 mm 2 m/s 686 mm Hg 84%
01:00 +2°C° 2.5 mm 2 m/s 686 mm Hg 87%
02:00 +1°C° 2.5 mm 2 m/s 686 mm Hg 91%
03:00 +1°C° 2.5 mm 2 m/s 686 mm Hg 94%
04:00 +1°C° 1.7 mm 2 m/s 686 mm Hg 95%
05:00 +1°C° 1.7 mm 2 m/s 686 mm Hg 95%
06:00 +1°C° 1.7 mm 1 m/s 687 mm Hg 95%
07:00 +1°C° 0.3 mm 2 m/s 687 mm Hg 95%
08:00 0°C° 0.3 mm 3 m/s 688 mm Hg 94%
09:00 -1°C° 0.3 mm 4 m/s 688 mm Hg 94%
10:00 -1°C° 0.1 mm 4 m/s 688 mm Hg 90%
11:00 -1°C° 0.1 mm 4 m/s 689 mm Hg 87%
12:00 -2°C° 0.1 mm 4 m/s 689 mm Hg 84%
13:00 -2°C° 0.1 mm 4 m/s 689 mm Hg 83%
14:00 -1°C° 0.1 mm 3 m/s 689 mm Hg 82%
15:00 -1°C° 0 mm 3 m/s 689 mm Hg 81%
16:00 -2°C° 0.1 mm 2 m/s 689 mm Hg 83%
17:00 -4°C° 0.1 mm 2 m/s 688 mm Hg 86%
18:00 -3°C° 0.1 mm 1 m/s 688 mm Hg 88%
19:00 -4°C° 0 mm 1 m/s 688 mm Hg 83%
20:00 -4°C° 0 mm 1 m/s 688 mm Hg 78%
21:00 -6°C° 0 mm 1 m/s 688 mm Hg 73%
22:00 -6°C° 0 mm 1 m/s 688 mm Hg 67%
23:00 -8°C° 0 mm 2 m/s 687 mm Hg 60%

8 Marzo, Lunedi

Tempo Temperatura Precipitazioni Vento Pressione Umidità
00:00 -8°C° 0 mm 2 m/s 687 mm Hg 54%
01:00 -8°C° 0 mm 2 m/s 687 mm Hg 52%
02:00 -8°C° 0 mm 2 m/s 687 mm Hg 50%
03:00 -8°C° 0 mm 2 m/s 686 mm Hg 48%
04:00 -8°C° 0 mm 2 m/s 686 mm Hg 48%
05:00 -7°C° 0 mm 2 m/s 686 mm Hg 48%
06:00 -7°C° 0 mm 2 m/s 685 mm Hg 47%
07:00 -3°C° 0 mm 1 m/s 686 mm Hg 49%
08:00 -2°C° 0 mm 1 m/s 686 mm Hg 51%
09:00 0°C° 0 mm 1 m/s 686 mm Hg 53%
10:00 +1°C° 0 mm 1 m/s 686 mm Hg 56%
11:00 +1°C° 0 mm 2 m/s 686 mm Hg 60%
12:00 +1°C° 0 mm 2 m/s 686 mm Hg 63%
13:00 +1°C° 0 mm 2 m/s 686 mm Hg 65%
14:00 +1°C° 0 mm 2 m/s 685 mm Hg 66%
15:00 +1°C° 0 mm 2 m/s 685 mm Hg 68%
16:00 -1°C° 0 mm 2 m/s 685 mm Hg 73%
17:00 -1°C° 0 mm 1 m/s 684 mm Hg 79%
18:00 -2°C° 0 mm 1 m/s 684 mm Hg 84%
19:00 -3°C° 0 mm 1 m/s 684 mm Hg 81%
20:00 -3°C° 0 mm 1 m/s 684 mm Hg 78%
21:00 -6°C° 0 mm 2 m/s 685 mm Hg 75%
22:00 -6°C° 0 mm 2 m/s 684 mm Hg 73%
23:00 -5°C° 0 mm 2 m/s 684 mm Hg 72%

9 Marzo, Martedi

Tempo Temperatura Precipitazioni Vento Pressione Umidità
00:00 -5°C° 0 mm 2 m/s 684 mm Hg 70%
01:00 -6°C° 0 mm 2 m/s 684 mm Hg 70%
02:00 -6°C° 0 mm 2 m/s 683 mm Hg 71%
03:00 -6°C° 0 mm 2 m/s 683 mm Hg 71%
04:00 -6°C° 0 mm 2 m/s 683 mm Hg 71%
05:00 -6°C° 0 mm 2 m/s 683 mm Hg 71%
06:00 -6°C° 0 mm 2 m/s 683 mm Hg 72%
07:00 -4°C° 0 mm 2 m/s 684 mm Hg 69%
08:00 0°C° 0 mm 1 m/s 684 mm Hg 66%
09:00 +2°C° 0 mm 1 m/s 684 mm Hg 63%
10:00 +1°C° 0 mm 2 m/s 684 mm Hg 64%
11:00 +2°C° 0 mm 2 m/s 684 mm Hg 65%
12:00 +2°C° 0 mm 2 m/s 684 mm Hg 66%
13:00 +1°C° 0.1 mm 3 m/s 684 mm Hg 68%
14:00 +1°C° 0.1 mm 3 m/s 684 mm Hg 70%
15:00 +1°C° 0.1 mm 3 m/s 684 mm Hg 72%
16:00 +1°C° 0.1 mm 2 m/s 684 mm Hg 77%
17:00 -1°C° 0.1 mm 2 m/s 684 mm Hg 83%
18:00 -2°C° 0.1 mm 2 m/s 684 mm Hg 88%
19:00 -1°C° 0.1 mm 1 m/s 684 mm Hg 89%
20:00 -1°C° 0.1 mm 1 m/s 685 mm Hg 89%
21:00 -2°C° 0.1 mm 1 m/s 685 mm Hg 89%
22:00 -2°C° 0.3 mm 1 m/s 685 mm Hg 91%
23:00 -2°C° 0.3 mm 1 m/s 685 mm Hg 92%
Mostrare altro

Abbiamo bisogno del tuo consenso

Meteoprog e i nostri fornitori di servizi possono memorizzare e accedere a dati personali come cookie, identificatori di dispositivi o altre tecnologie simili sul tuo dispositivo e possono elaborare tali dati per personalizzare i contenuti e gli annunci, nonché fornire funzionalità dei social media e analizzarne il traffico.

  • Archiviare e/o accedere alle informazioni sul tuo dispositivo

    Cookie, identificatori di dispositivi o altre informazioni possono essere memorizzati o resi accessibili sul tuo dispositivo per le finalità sopra indicate.

  • Annunci e contenuti personalizzati, misurazione di annunci e contenuti, approfondimenti sul pubblico e sviluppo di prodotti

    Gli annunci e i contenuti possono essere personalizzati in base a un profilo. È possibile aggiungere più dati per personalizzare meglio annunci e contenuti. È possibile misurare il rendimento degli annunci e dei contenuti. È possibile ricavare informazioni sul pubblico che ha visto gli annunci e i contenuti. Tali dati possono essere utilizzati per sviluppare o migliorare l'esperienza, i sistemi e il software dell'utente.

Cliccando su “Accetto”, acconsenti all'uso di cookie, identificatori di dispositivo, web beacon o altre tecnologie simili. Puoi modificare le impostazioni nel browser del tuo dispositivo.

Per determinati scopi, è possibile fare affidamento su interessi legali, piuttosto che sul consenso. Puoi approfondire questo argomento consultando la nostra Informativa sulla privacy e sui cookie.